Weather History for Waterville, ME

Change the Weather History Date:

Sunday, February 2, 2014

  Actual Average Record
Temperature  
Mean Temperature 34 °F -  
Max Temperature 37 °F 33 °F 58 °F (1989)
Min Temperature 32 °F 8 °F -31 °F (1962)
Degree Days  
Heating Degree Days 30    
Moisture  
Dew Point 31 °F    
Average Humidity 85    
Maximum Humidity 93    
Minimum Humidity 56    
Precipitation  
Precipitation 0.09 in - - ()
Sea Level Pressure  
Sea Level Pressure 29.84 in    
Wind  
Wind Speed 5 mph (WSW)    
Max Wind Speed 16 mph    
Max Gust Speed 23 mph    
Visibility 7 miles    
Events      
Averages and records for this station are not official NWS values.
T = Trace of Precipitation, MM = Missing Value Source: NWS Daily Summary

Daily Weather History Graph

Daily Weather History Graph

Search for Another Location

Airport:

Trip Planner

Search our weather history database for the weather conditions in past years. The results will help you decide how hot, cold, wet, or windy it might be!

Date:

Astronomy

Feb. 02, 2014 Rise Set
Actual Time 6:56 AM EST 4:49 PM EST
Civil Twilight 6:25 AM EST 5:20 PM EST
Nautical Twilight 5:50 AM EST 5:54 PM EST
Astronomical Twilight 5:16 AM EST 6:29 PM EST
Moon 8:11 AM EST (2/2) 8:40 PM EST (2/2)
Length of Visible Light 10h 54m
Length of Day
9h 52m
Waxing Crescent, 11% of the Moon is Illuminated
Feb 2
Waxing Crescent
Feb 6
First Quarter
Feb 14
Full
Feb 22
Last Quarter
Mar 1
New

Hourly Weather History & Observations

Time (EST) Temp. Windchill Dew Point Humidity Pressure Visibility Wind Dir Wind Speed Gust Speed Precip Events Conditions
12:15 AM 32.0 °F 26.4 °F 30.2 °F 93% 29.90 in 6.0 mi South 5.8 mph - 0.01 in   Mostly Cloudy
12:35 AM 33.8 °F 29.6 °F 30.2 °F 87% 29.89 in 8.0 mi South 4.6 mph - 0.01 in   Overcast
12:55 AM 33.8 °F 27.0 °F 30.2 °F 87% 29.89 in 10.0 mi SSW 8.1 mph - 0.02 in   Overcast
1:15 AM 33.8 °F 28.6 °F 30.2 °F 87% 29.89 in 10.0 mi SSW 5.8 mph - 0.01 in   Overcast
1:35 AM 33.8 °F 29.6 °F 30.2 °F 87% 29.89 in 10.0 mi SSW 4.6 mph - 0.02 in   Overcast
1:55 AM 33.8 °F 29.6 °F 30.2 °F 87% 29.89 in 10.0 mi SSW 4.6 mph - 0.03 in   Overcast
2:15 AM 33.8 °F 29.6 °F 30.2 °F 87% 29.88 in 8.0 mi South 4.6 mph - N/A   Overcast
2:35 AM 33.8 °F 28.6 °F 30.2 °F 87% 29.87 in 5.0 mi SSW 5.8 mph - 0.01 in   Overcast
2:55 AM 33.8 °F 28.6 °F 30.2 °F 87% 29.85 in 5.0 mi SSW 5.8 mph - 0.01 in   Overcast
3:15 AM 33.8 °F 28.6 °F 30.2 °F 87% 29.84 in 4.0 mi South 5.8 mph - N/A   Overcast
3:35 AM 33.8 °F 27.7 °F 30.2 °F 87% 29.83 in 2.0 mi SSW 6.9 mph - 0.01 in   Overcast
3:55 AM 33.8 °F 28.6 °F 30.2 °F 87% 29.81 in 2.0 mi South 5.8 mph - 0.01 in   Overcast
4:15 AM 33.8 °F 29.6 °F 30.2 °F 87% 29.81 in 2.5 mi South 4.6 mph - N/A   Overcast
4:35 AM 33.8 °F 29.6 °F 30.2 °F 87% 29.80 in 2.5 mi South 4.6 mph - 0.01 in   Mostly Cloudy
4:55 AM 33.8 °F 30.8 °F 30.2 °F 87% 29.79 in 3.0 mi South 3.5 mph - 0.01 in   Mostly Cloudy
5:15 AM 33.8 °F 28.6 °F 30.2 °F 87% 29.79 in 5.0 mi SSW 5.8 mph - 0.01 in   Scattered Clouds
5:35 AM 33.8 °F - 30.2 °F 87% 29.79 in 5.0 mi Calm Calm - 0.01 in   Overcast
5:55 AM 33.8 °F - 30.2 °F 87% 29.79 in 6.0 mi Calm Calm - 0.01 in   Overcast
6:15 AM 33.8 °F 30.8 °F 30.2 °F 87% 29.79 in 5.0 mi SW 3.5 mph - N/A   Overcast
6:35 AM 33.8 °F 30.8 °F 30.2 °F 87% 29.79 in 7.0 mi SSW 3.5 mph - N/A   Mostly Cloudy
6:55 AM 33.8 °F - 30.2 °F 87% 29.78 in 5.0 mi Calm Calm - N/A   Partly Cloudy
7:15 AM 32.0 °F - 30.2 °F 93% 29.78 in 1.8 mi Calm Calm - N/A   Clear
7:35 AM 32.0 °F - 30.2 °F 93% 29.78 in 3.0 mi Calm Calm - N/A   Clear
7:55 AM 32.0 °F 28.7 °F 30.2 °F 93% 29.79 in 3.0 mi SSW 3.5 mph - N/A   Clear
8:15 AM 33.8 °F 29.6 °F 32.0 °F 93% 29.80 in 4.0 mi SSW 4.6 mph - N/A   Clear
8:35 AM 33.8 °F 28.6 °F 32.0 °F 93% 29.80 in 5.0 mi SW 5.8 mph - N/A   Clear
8:55 AM 33.8 °F 29.6 °F 32.0 °F 93% 29.80 in 5.0 mi SW 4.6 mph - N/A   Clear
9:15 AM 33.8 °F 30.8 °F 30.2 °F 87% 29.80 in 5.0 mi SW 3.5 mph - N/A   Scattered Clouds
9:35 AM 33.8 °F 29.6 °F 32.0 °F 93% 29.79 in 6.0 mi SSW 4.6 mph - N/A   Overcast
9:55 AM 33.8 °F 29.6 °F 32.0 °F 93% 29.79 in 5.0 mi SSW 4.6 mph - N/A   Mostly Cloudy
10:15 AM 35.6 °F - 33.8 °F 93% 29.79 in 5.0 mi Calm Calm - N/A   Mostly Cloudy
10:35 AM 35.6 °F 32.8 °F 32.0 °F 87% 29.80 in 8.0 mi SW 3.5 mph - N/A   Overcast
10:55 AM 35.6 °F 32.8 °F 33.8 °F 93% 29.80 in 5.0 mi South 3.5 mph - N/A   Overcast
11:15 AM 35.6 °F 32.8 °F 33.8 °F 93% 29.81 in 5.0 mi WSW 3.5 mph - N/A   Overcast
11:35 AM 35.6 °F - 33.8 °F 93% 29.78 in 7.0 mi Calm Calm - N/A   Overcast
11:55 AM 35.6 °F 32.8 °F 32.0 °F 87% 29.78 in 9.0 mi SSW 3.5 mph - N/A   Mostly Cloudy
12:15 PM 35.6 °F 31.7 °F 33.8 °F 93% 29.78 in 8.0 mi SW 4.6 mph - N/A   Mostly Cloudy
12:35 PM 35.6 °F 32.8 °F 33.8 °F 93% 29.78 in 8.0 mi SW 3.5 mph - N/A   Overcast
12:55 PM 35.6 °F 31.7 °F 33.8 °F 93% 29.79 in 8.0 mi SW 4.6 mph - N/A   Overcast
1:15 PM 35.6 °F 31.7 °F 33.8 °F 93% 29.79 in 7.0 mi WSW 4.6 mph - N/A   Overcast
1:35 PM 37.4 °F 34.9 °F 33.8 °F 87% 29.79 in 10.0 mi WSW 3.5 mph - N/A   Overcast
1:55 PM 37.4 °F 34.9 °F 33.8 °F 87% 29.79 in 10.0 mi West 3.5 mph - N/A   Overcast
2:15 PM 37.4 °F - 33.8 °F 87% 29.76 in 10.0 mi Calm Calm - N/A   Overcast
2:35 PM 37.4 °F 33.8 °F 33.8 °F 87% 29.79 in 7.0 mi WNW 4.6 mph - N/A   Mostly Cloudy
2:55 PM 37.4 °F 34.9 °F 33.8 °F 87% 29.81 in 10.0 mi WNW 3.5 mph - N/A   Overcast
3:15 PM 37.4 °F - 33.8 °F 87% 29.81 in 10.0 mi Calm Calm - N/A   Overcast
3:35 PM 37.4 °F - 33.8 °F 87% 29.82 in 7.0 mi Calm Calm - N/A   Overcast
3:55 PM 37.4 °F 34.9 °F 35.6 °F 93% 29.83 in 7.0 mi SW 3.5 mph - N/A   Overcast
4:15 PM 37.4 °F 33.8 °F 35.6 °F 93% 29.83 in 7.0 mi WSW 4.6 mph - N/A   Overcast
4:35 PM 37.4 °F 34.9 °F 33.8 °F 87% 29.84 in 10.0 mi WSW 3.5 mph - N/A   Overcast
4:55 PM 35.6 °F 31.7 °F 33.8 °F 93% 29.84 in 6.0 mi WSW 4.6 mph - N/A   Overcast
5:15 PM 35.6 °F - 33.8 °F 93% 29.84 in 7.0 mi Calm Calm - N/A   Overcast
5:35 PM 35.6 °F 31.7 °F 33.8 °F 93% 29.84 in 6.0 mi WSW 4.6 mph - N/A   Overcast
5:55 PM 35.6 °F 32.8 °F 33.8 °F 93% 29.85 in 8.0 mi West 3.5 mph - N/A   Overcast
6:15 PM 35.6 °F 32.8 °F 33.8 °F 93% 29.86 in 7.0 mi SSW 3.5 mph - N/A   Overcast
6:35 PM 35.6 °F 31.7 °F 33.8 °F 93% 29.87 in 10.0 mi West 4.6 mph - N/A   Overcast
6:55 PM 37.4 °F 30.8 °F 30.2 °F 75% 29.88 in 10.0 mi WNW 9.2 mph - N/A   Overcast
7:15 PM 37.4 °F 30.8 °F 28.4 °F 70% 29.87 in 10.0 mi NW 9.2 mph - N/A   Overcast
7:35 PM 37.4 °F 30.8 °F 28.4 °F 70% 29.90 in 10.0 mi WNW 9.2 mph - N/A   Overcast
7:55 PM 37.4 °F 30.8 °F 28.4 °F 70% 29.89 in 10.0 mi NW 9.2 mph - N/A   Overcast
8:15 PM 37.4 °F 31.4 °F 28.4 °F 70% 29.89 in 10.0 mi WNW 8.1 mph - N/A   Overcast
8:35 PM 37.4 °F 32.8 °F 28.4 °F 70% 29.90 in 10.0 mi WNW 5.8 mph - N/A   Mostly Cloudy
8:55 PM 35.6 °F 30.7 °F 26.6 °F 70% 29.90 in 10.0 mi WNW 5.8 mph - N/A   Partly Cloudy
9:15 PM 35.6 °F 30.7 °F 26.6 °F 70% 29.91 in 10.0 mi West 5.8 mph - N/A   Clear
9:35 PM 33.8 °F 26.4 °F 26.6 °F 75% 29.92 in 10.0 mi NW 9.2 mph - N/A   Clear
9:55 PM 35.6 °F 27.5 °F 24.8 °F 65% 29.92 in 10.0 mi NW 11.5 mph - N/A   Clear
10:15 PM 33.8 °F 25.8 °F 24.8 °F 70% 29.93 in 10.0 mi WNW 10.4 mph - N/A   Clear
10:35 PM 33.8 °F 25.8 °F 23.0 °F 65% 29.94 in 10.0 mi WNW 10.4 mph - N/A   Clear
10:55 PM 33.8 °F 27.0 °F 23.0 °F 65% 29.95 in 10.0 mi WNW 8.1 mph - N/A   Clear
11:15 PM 33.8 °F 25.8 °F 21.2 °F 60% 29.95 in 10.0 mi WNW 10.4 mph - N/A   Clear
11:35 PM 33.8 °F 24.8 °F 21.2 °F 60% 29.97 in 10.0 mi WNW 12.7 mph 20.7 mph N/A   Clear
11:55 PM 33.8 °F 23.5 °F 19.4 °F 56% 29.98 in 10.0 mi WNW 16.1 mph 23.0 mph N/A   Clear